Погода в Медвеженском

Россия / Ставропольский край     45°43′35″N   41°36′18″E
темп.,
°C
ветер,
м/с
пор.,
м/с
влажн.,
%
обл.,
%
осадки,
мм/ч
давл.,
гПа
погр.,
м
19 апреля, пн
пн1900:00+11всв2296100 0.4 101635
03:00+11ссв0195100 0.7 101510
06:00+11ююв1197100 0.4 101410
09:00+13юз3798100 2.6 1014236
12:00+13зсз2398100 5.4 1014116
15:00+13ююз1298100 16.8 101467
18:00+13юз2296100 0.7 101430
21:00+13ю3498100 2.4 1015102
20 апреля, вт
вт2000:00+13юв3495100 0.3 101287
03:00+13ссв3496100 1.8 101094
06:00+13в81592100 1.3 1006535
09:00+15вюв71176100 1.4 1005472
12:00+20зюз566947 0.2 1005793
15:00+19з587771 0.4 1007526
18:00+17юз697779 0.7 1008507
21:00+13юз71476100 1.0 1012775
21 апреля, ср
ср2100:00+11з71481100 0.2 1013772
03:00+10зюз5118099 0.2 1015604
06:00+10з388410 0.0 1016428
09:00+13зюз3470100 0.0 1018977
12:00+14зюз346499 0.2 10181262
15:00+16зюз4558100 0.3 10181506
18:00+14зюз45728 0.1 1019381
21:00+11ю37885 0.4 1021129
22 апреля, чт
чт2200:00+9ююз33875 0.1 102159
03:00+9зюз2391100 0.1 102146
06:00+9зсз2392100 0.0 102282
09:00+12з227610 0.0 1023513
12:00+16юз3359100 0.1 10231433
15:00+16ююз336195 0.5 1022830
18:00+15ююв3473100 1.1 1023126
21:00+11ю348524 1.3 102360
23 апреля, пт
пт2300:00+10юз33875 0.0 102340
03:00+9зюз22891 0.0 102310
06:00+9зсз11880 0.0 102311
09:00+14зюз21694 0.0 1023523
12:00+17зюз22524 0.0 10221610
15:00+19з234348 0.0 10212103
18:00+17с2258100 0.0 102132
21:00+13всв226288 0.0 102113